Regional Weather Roundup
Issued by NWS Wakefield, VA

Home | Current Version | Previous Version | Graphics & Text | Print | Product List | Glossary Off
Versions: 1 2 3 4 5 6 7 8 9 10 11 12 13 14 15 16 17 18 19 20 21 22 23 24 25 26 27 28

000
ASUS41 KAKQ 260410
RWRAKQ

REGIONAL WEATHER ROUNDUP
NATIONAL WEATHER SERVICE WAKEFIELD VA
1200 AM EDT SUN OCT 26 2014

Note: "fair" indicates few or no clouds below 12,000 feet with no
significant weather and/or obstructions to visibility. * = Denotes
station may not report precipitation (e.g., rain,snow,etc.),
thunder or fog.

VAZ042-051-052>054-056-260500-
NORTHERN VIRGINIA

CITY           SKY/WX    TMP DP  RH WIND       PRES   REMARKS
WASH NATIONAL  CLEAR     59  48  67 S6        29.72F
DULLES         CLEAR     53  44  71 S9        29.71F
FORT BELVOIR   CLEAR     47  45  93 CALM      29.72F
QUANTICO       CLEAR     54  47  77 W5        29.74F
FREDERICKSBRG* CLEAR     53  46  76 CALM      29.73F
STAFFORD*      CLEAR     49  43  80 CALM      29.77F
WARRENTON      CLEAR     46  45  98 CALM      29.72F
CULPEPER*      CLEAR     48  45  87 CALM      29.74F
MANASSAS*      CLEAR     46  45  93 CALM      29.72F
LEESBURG*      CLEAR     63  50  63 SW7       29.71F
WINCHESTER     PTCLDY    64  43  45 W8        29.72S
FRONT ROYAL*   PTCLDY    63  46  55 SW5       29.72F
LURAY*         PTCLDY    63  46  55 S6        29.75F
$$

VAZ048-049-060>072-079>083-260500-
CENTRAL AND SOUTH CENTRAL VIRGINIA...AND NORTH CENTRAL NORTH CAROLINA

CITY           SKY/WX    TMP DP  RH WIND       PRES   REMARKS
RICHMOND       CLEAR     60  44  55 SW12      29.75F
CHESTERFIELD*    N/A    N/A N/A N/A MISG        N/A
PETERSBURG*    CLEAR     53  44  70 SW6       29.78F
HANOVER        CLEAR     58  44  60 SW6       29.76F
TAPPAHANNOCK*  CLEAR     57  41  55 SW3       29.74F
CHARLOTTSVILLE CLEAR     64  46  52 SW6       29.75F
ORANGE*        CLEAR     50  45  81 S3        29.76F
LOUISA*        CLEAR     55  46  71 SW3       29.75S
FARMVILLE*     CLEAR     57  45  62 SW3       29.77F
CREWE*         CLEAR     57  43  59 W3        29.79S
FORT PICKETT*  CLEAR     55  44  67 SW6       29.79F
LUNENBURG*     CLEAR     57  46  66 W5        29.80F
SOUTH HILL*    CLEAR     59  45  58 SW7       29.86F
LAWRENCEVILLE* CLEAR     53  46  76 SW3       29.80F
ROANOKE RAPIDS CLEAR     50  45  81 SW8       29.82F
RALEIGH        CLEAR     54  43  66 SW3       29.87F
$$

VAZ088>098-260500-
SOUTHEAST VIRGINIA

CITY           SKY/WX    TMP DP  RH WIND       PRES   REMARKS
NORFOLK        CLEAR     61  44  53 SW15      29.77F
VIRGINIA BEACH CLEAR     59  45  59 SW9       29.77F
NORFOLK NAVAL  CLEAR     62  46  55 SW13G18   29.78F
WEST POINT*    CLEAR     60  45  58 SW3       29.77F
NEWPORT NEWS   CLEAR     62  46  55 SW12      29.76F
LANGLEY AFB    CLEAR     61  46  58 SW15      29.76F
FORT EUSTIS    CLEAR     59  45  60 VRB5      29.75F
WILLIAMSBURG*  CLEAR     63  46  55 W8        29.77F
HR EXEC AP*    CLEAR     55  45  67 SW6       29.80F
FRANKLIN*      CLEAR     54  46  76 SW3       29.79F
WAKEFIELD      CLEAR     57  45  64 SW7       29.78F
$$

VAZ020-022-025-037-045-260500-
WEST CENTRAL AND SOUTHWEST VIRGINIA

CITY           SKY/WX    TMP DP  RH WIND       PRES   REMARKS
STAUNTON*      PTCLDY    58  46  65 SW3       29.81S
HOT SPRINGS VA MOCLDY    51  47  87 W21G28    29.84F
LYNCHBURG      CLEAR     56  48  74 SW7       29.84S
DANVILLE       CLEAR     55  46  71 W8        29.86F
SOUTH BOSTON*  NOT AVBL
MARTINSVILLE   CLEAR     54  48  80 SW6       29.90F
ROANOKE        CLEAR     61  49  64 SW5       29.87F
BLACKSBURG     CLEAR     59  52  77 W7        29.91F
DUBLIN*        CLEAR     61  52  72 W13       29.92F
MARION*        CLEAR     54  47  78 W12       30.00S
HILLSVILLE*    CLEAR     57  49  74 W9G17     29.95F
RICHLANDS*     CLOUDY    58  27  30 W8        30.00S
WISE*          CLEAR     54  48  82 SW9       30.02S
ABINGDON*      CLEAR     54  49  81 W5        30.01S
$$

MDZ021>025-VAZ099-100-260500-
SOUTHERN MARYLAND AND THE DELMARVA PENINSULA

CITY           SKY/WX    TMP DP  RH WIND       PRES   REMARKS
PATUXENT RIVER CLEAR     59  43  55 VRB3      29.73S
BAY BRIDGE APT   N/A     59  45  58 W6        29.69F
LEONARDTOWN    CLEAR     57  43  58 SW6       29.74F
DOVER          CLEAR     56  47  71 SW9       29.65F
GEORGETOWN     CLEAR     57  46  66 SW6       29.71F
EASTON         CLEAR     60  48  64 SW6       29.74F
CAMBRIDGE      CLEAR     59  45  58 SW6       29.71F
SALISBURY      CLEAR     55  47  74 SW5       29.72F
OCEAN CITY     CLEAR     58  48  69 SW12      29.71F
WALLOPS ISLAND CLEAR     60  47  61 W9        29.73F
ACCOMACK*      CLEAR     61  45  55 SW10      29.74F
$$

NCZ012>017-030>032-260500-
EASTERN NORTH CAROLINA

CITY           SKY/WX    TMP DP  RH WIND       PRES   REMARKS
ELIZABETH CITY CLEAR     58  48  69 SW10      29.81F
AHOSKIE*       CLEAR     51  46  83 CALM      29.82F
EDENTON*       CLEAR     59  51  74 SW6       29.83F
CURRITUCK*     CLEAR     59  46  60 SW7       29.81F
KILL DEVIL HLS CLEAR     58  50  74 SW8       29.81F
MANTEO         CLEAR     58  52  81 SW8       29.83F
CAPE HATTERAS  CLEAR     62  55  77 W9        29.86F
TARBORO*       CLEAR     58  47  66 SW5       29.85F
GOLDSBORO      CLEAR     56  49  76 SW5       29.85F
WASHINGTON     CLEAR     56  46  70 SW5       29.85F
GREENVILLE     CLEAR     54  46  76 SW7       29.87F
NEW BERN       CLEAR     56  48  74 SW6       29.88F
WILMINGTON     CLEAR     54  48  80 CALM      29.91F
$$

VAZ048-260500-
ELSEWHERE

CITY           SKY/WX    TMP DP  RH WIND       PRES   REMARKS
HARRISBURG PA  LGT RAIN  61  51  70 W7        29.64R
BALTIMORE      CLEAR     60  43  53 SW8       29.68F
ANNAPOLIS      CLEAR     57  42  57 CALM      29.69F
ANDREWS AFB    CLEAR     55  44  67 SW6       29.71F
WILMINGTON DE  CLEAR     57  44  62 SW8       29.65F
PHILADELPHIA   MOCLDY    59  44  57 SW13      29.63F
WILDWOOD NJ*   CLEAR     59  45  58 SW14G21   29.69F
ATLANTIC CITY  CLEAR     57  47  69 SW9       29.65F
HENDERSON NC   CLEAR     53  41  63 SW6       29.85F
GREENSBORO     CLEAR     53  41  63 W7        29.89F
ROCKY MOUNT    CLEAR     53  45  74 S6        29.85F
FAYETTEVILLE   CLEAR     58  43  57 SW9       29.89F
CHARLOTTE      CLEAR     55  42  61 W6        29.94F
$$

VAZ100-260500-
MARINE

STATION/POSITION TIME  TEMP    WIND        PRES    WAVE   SWELL
                       AIR SEA DIR/SP/G            HT/PER HT/PER
                 (UTC) (F)     (DEG/KT/KT) (MB)    (FT/S) (FT/S)
44066 TX TWR #4  0400   64 65  240/ 25/ 29 1003.1F   6/ 6
CAPE MAY NJ      0400   60 64  240/ 19/ 22 1004.4F
LEWES DE         0400   57 60  240/  7/ 10 1005.2F
15NM E FENWICK I 0400   65 64  230/ 19/ 23 1005.5F   4/ 5
OCEAN-CITY-INLET 0400   60 62  250/ 11/ 14 1005.7F
WACHAPREAGUE VA  0400   60 62  240/  5/  7 1007.3F
THOMAS POINT MD  0400   60 62  260/  8/  9 1006.7F
GOOSES REEF MD   0400   62     280/ 14/ 16 1006.9F
COVE POINT MD    0400   61     270/ 13/ 17 1006.3S
SOLOMONS ISLAND  0400      63                N/A
BISHOPS HEAD MD  0400   62 59  250/ 17/ 18 1005.9F
PINEY POINT MD   0400          310/  5/  6   N/A
POTOMAC MD       0400   62     270/ 10/ 14 1006.4S
CAMBRIDGE MD     0400   60 60  230/  7/ 10 1006.0S
LEWISETTA VA     0400   60 60  240/ 11/ 13 1006.4S
RAPPAHANNOCK LGT 0400          220/ 18/ 20 1007.5F
STINGRAY PT      0400   63     230/ 14/ 17 1007.8F
YORK RVR RNG VA  0400   62     250/ 13/ 15 1007.0F
YORKTOWN VA      0400   62 64  230/ 14/ 17 1007.0F
JAMESTOWN VA     0400   60     250/ 12/ 16   N/A
DOMINION TERM VA 0400   62     230/ 15/ 17 1008.0F
KIPTOPEKE VA     0400      66  240/ 17/ 21   N/A
CHES BAY BRIDGE  0400   63 64  210/ 16/ 19 1007.3F
CHESAPEAKE LGHT  0300   64     230/ 19/ 21 1009.2F
WILLOUBY STN VA  0400   62     230/ 14/ 17 1006.5F
S CRANEY ISL VA  0400          190/  7/ 13 1007.9F
CAPE HENRY BUOY  0400      67                N/A     2/ 3
1ST LANDING BUOY 0400   64     230/ 17/ 19 1007.7F
CAPE CHARLES BUO 0400      66                N/A     2/ 3   2/ 9
64NM E OF VA BCH 0400   66 66  240/ 17/ 19 1008.2F   3/ 4   2/10
DUCK PIER NC     0400   62 67  230/  8/ 11 1008.8F
44100 DUCK FRF   0400      67                N/A     2/10
44056 DUCK FRF   0400                        N/A     2/11   2/11
OREGON INLET NC  0400   63 66  220/ 13/ 16 1009.9F
HATTERAS NC      0400   65 67  250/ 12/ 16 1011.4F
DIAMOND SHLS NC  0400   68     250/ 17/ 23 1011.0F   3/ 8   2/ 8
CAPE LOOKOUT NC  0300   68     270/ 13/ 15 1012.3F
$$



USA.gov is the U.S. government's official web portal to all federal, state and local government web resources and services.